OAL017 LGAV-LYBE

Flight info

Callsign OAL017
Flight time 1h 23m
Altitude 36000
Route KRO UG33 KOROS UN133 PEREN UL863 EVIVI L863 OKANA DCT GAZON
Aircraft A320/M-SDE3FGHIRWY/LB1

Departure

Time 2026-05-04 22:34
Airport Athens Eleftherios Venizelos International Airport (LGAV)

Arrival

Time 2026-05-04 23:58
Airport Belgrade Nikola Tesla Airport (LYBE)
Time Latitude Longitude Altitude Speed Heading
2026-05-04 22:26 37.92910 23.94105 290 ft 0 kts 217°
2026-05-04 22:28 37.92912 23.94107 290 ft 5 kts 217°
2026-05-04 22:28 37.92941 23.94135 302 ft 5 kts 217°
2026-05-04 22:28 37.92970 23.94162 302 ft 5 kts 217°
2026-05-04 22:29 37.92979 23.94181 301 ft 1 kts 316°
2026-05-04 22:29 37.92993 23.94161 301 ft 7 kts 311°
2026-05-04 22:29 37.93041 23.94088 303 ft 15 kts 309°
2026-05-04 22:29 37.93123 23.93955 302 ft 23 kts 307°
2026-05-04 22:30 37.93235 23.93770 301 ft 30 kts 307°
2026-05-04 22:30 37.93361 23.93546 302 ft 30 kts 286°
2026-05-04 22:30 37.93226 23.93337 300 ft 36 kts 218°
2026-05-04 22:30 37.93010 23.93132 301 ft 42 kts 216°
2026-05-04 22:31 37.92759 23.92895 302 ft 48 kts 217°
2026-05-04 22:31 37.92566 23.92699 301 ft 30 kts 235°
2026-05-04 22:31 37.92597 23.92527 302 ft 12 kts 295°
2026-05-04 22:31 37.92628 23.92509 302 ft 0 kts 348°
2026-05-04 22:33 37.92661 23.92502 302 ft 9 kts 353°
2026-05-04 22:33 37.92756 23.92490 301 ft 17 kts
2026-05-04 22:33 37.92897 23.92612 295 ft 49 kts 37°
2026-05-04 22:33 37.93421 23.93095 294 ft 132 kts 36°
2026-05-04 22:34 37.94277 23.93983 511 ft 177 kts 41°
2026-05-04 22:34 37.95278 23.94993 1312 ft 189 kts 37°
2026-05-04 22:34 37.96327 23.96083 2262 ft 201 kts 37°
2026-05-04 22:34 37.97490 23.97223 3003 ft 223 kts 31°
2026-05-04 22:35 37.98825 23.98366 3689 ft 237 kts 30°
2026-05-04 22:35 38.00210 23.99535 4633 ft 241 kts 31°
2026-05-04 22:35 38.01598 24.00735 5615 ft 243 kts 31°
2026-05-04 22:35 38.02995 24.01970 6566 ft 247 kts 32°
2026-05-04 22:36 38.04408 24.03242 7445 ft 251 kts 32°
2026-05-04 22:36 38.05836 24.04540 8315 ft 257 kts 32°
2026-05-04 22:36 38.07331 24.05896 8977 ft 269 kts 32°
2026-05-04 22:36 38.08865 24.07290 9891 ft 273 kts 32°
2026-05-04 22:37 38.10432 24.08708 10550 ft 286 kts 32°
2026-05-04 22:37 38.12121 24.10219 10857 ft 309 kts 32°
2026-05-04 22:37 38.13938 24.11835 11260 ft 326 kts 32°
2026-05-04 22:37 38.15791 24.13479 11943 ft 332 kts 32°
2026-05-04 22:38 38.17705 24.15173 12729 ft 337 kts 32°
2026-05-04 22:38 38.19641 24.16886 13522 ft 341 kts 32°
2026-05-04 22:38 38.21602 24.18626 14275 ft 346 kts 32°
2026-05-04 22:38 38.23595 24.20381 14973 ft 351 kts 32°
2026-05-04 22:39 38.25622 24.22144 15645 ft 356 kts 32°
2026-05-04 22:39 38.27683 24.23923 16308 ft 360 kts 32°
2026-05-04 22:39 38.29800 24.25741 16992 ft 364 kts 32°
2026-05-04 22:39 38.31896 24.27524 17614 ft 370 kts 32°
2026-05-04 22:40 38.34057 24.29335 18273 ft 375 kts 32°
2026-05-04 22:40 38.36260 24.31160 18838 ft 381 kts 32°
2026-05-04 22:40 38.38505 24.32995 19412 ft 385 kts 32°
2026-05-04 22:40 38.40773 24.34837 20055 ft 388 kts 32°
2026-05-04 22:41 38.43068 24.36684 20686 ft 392 kts 33°
2026-05-04 22:41 38.45388 24.38553 21327 ft 395 kts 33°
2026-05-04 22:41 38.47720 24.40440 21938 ft 399 kts 33°
2026-05-04 22:41 38.50073 24.42351 22504 ft 403 kts 33°
2026-05-04 22:42 38.52448 24.44284 23086 ft 407 kts 33°
2026-05-04 22:42 38.54842 24.46233 23647 ft 411 kts 33°
2026-05-04 22:42 38.57267 24.48207 24160 ft 414 kts 33°
2026-05-04 22:42 38.59703 24.50198 24673 ft 417 kts 33°
2026-05-04 22:43 38.62155 24.52204 25200 ft 419 kts 33°
2026-05-04 22:43 38.64618 24.54217 25740 ft 421 kts 33°
2026-05-04 22:43 38.67091 24.56238 26245 ft 424 kts 32°
2026-05-04 22:43 38.69581 24.58276 26768 ft 426 kts 33°
2026-05-04 22:44 38.72084 24.60329 27242 ft 429 kts 33°
2026-05-04 22:44 38.74727 24.62111 27746 ft 432 kts 20°
2026-05-04 22:44 38.77665 24.62939 28218 ft 436 kts
2026-05-04 22:44 38.80703 24.62647 28638 ft 442 kts 348°
2026-05-04 22:45 38.83680 24.61605 29089 ft 444 kts 346°
2026-05-04 22:45 38.89654 24.59430 30101 ft 447 kts 346°
2026-05-04 22:45 38.92650 24.58343 30500 ft 448 kts 346°
2026-05-04 22:46 38.95647 24.57260 31002 ft 446 kts 346°
2026-05-04 22:46 38.98619 24.56189 31639 ft 441 kts 346°
2026-05-04 22:46 39.01557 24.55134 32296 ft 436 kts 345°
2026-05-04 22:46 39.04462 24.54094 32980 ft 431 kts 345°
2026-05-04 22:47 39.07332 24.53065 33670 ft 425 kts 345°
2026-05-04 22:47 39.10159 24.52047 34347 ft 419 kts 344°
2026-05-04 22:47 39.12955 24.51034 34859 ft 417 kts 344°
2026-05-04 22:47 39.15744 24.50022 35255 ft 417 kts 344°
2026-05-04 22:48 39.18538 24.49008 35626 ft 417 kts 344°
2026-05-04 22:48 39.21331 24.47992 35988 ft 418 kts 344°
2026-05-04 22:48 39.24100 24.46985 36136 ft 420 kts 344°
2026-05-04 22:48 39.26925 24.45961 36167 ft 424 kts 344°
2026-05-04 22:49 39.32616 24.43896 36166 ft 425 kts 344°
2026-05-04 22:49 39.38321 24.41817 36166 ft 426 kts 344°
2026-05-04 22:50 39.44032 24.39735 36166 ft 427 kts 344°
2026-05-04 22:50 39.49756 24.37648 36159 ft 426 kts 344°
2026-05-04 22:51 39.55459 24.35556 36173 ft 426 kts 344°
2026-05-04 22:51 39.61162 24.33457 36171 ft 426 kts 344°
2026-05-04 22:52 39.66831 24.31375 36173 ft 426 kts 344°
2026-05-04 22:52 39.72551 24.29273 36173 ft 427 kts 344°
2026-05-04 22:53 39.78264 24.27171 36174 ft 427 kts 345°
2026-05-04 22:53 39.83978 24.25066 36169 ft 427 kts 345°
2026-05-04 22:54 39.89709 24.22944 36168 ft 428 kts 345°
2026-05-04 22:54 39.95436 24.20821 36169 ft 428 kts 345°
2026-05-04 22:55 40.01170 24.18695 36172 ft 428 kts 345°
2026-05-04 22:55 40.06906 24.16568 36165 ft 429 kts 345°
2026-05-04 22:56 40.12653 24.14436 36160 ft 430 kts 345°
2026-05-04 22:56 40.18407 24.12283 36165 ft 430 kts 345°
2026-05-04 22:57 40.23193 24.10495 36166 ft 430 kts 345°
2026-05-04 22:57 40.28953 24.08340 36164 ft 431 kts 345°
2026-05-04 22:58 40.34715 24.06185 36160 ft 431 kts 345°
2026-05-04 22:58 40.40465 24.04030 36173 ft 429 kts 345°
2026-05-04 22:59 40.46200 24.01868 36172 ft 428 kts 345°
2026-05-04 22:59 40.51929 23.99701 36170 ft 428 kts 345°
2026-05-04 23:00 40.57656 23.97543 36166 ft 428 kts 345°
2026-05-04 23:00 40.63174 23.94596 36157 ft 429 kts 335°
2026-05-04 23:01 40.68562 23.91197 36149 ft 429 kts 336°
2026-05-04 23:01 40.73960 23.87803 36141 ft 430 kts 336°
2026-05-04 23:02 40.79364 23.84406 36141 ft 431 kts 336°
2026-05-04 23:02 40.84742 23.81019 36140 ft 431 kts 336°
2026-05-04 23:03 40.90154 23.77591 36142 ft 431 kts 335°
2026-05-04 23:03 40.95565 23.74153 36118 ft 432 kts 336°
2026-05-04 23:04 41.00985 23.70708 36137 ft 432 kts 336°
2026-05-04 23:04 41.06401 23.67269 36145 ft 431 kts 336°
2026-05-04 23:05 41.11810 23.63828 36148 ft 431 kts 336°
2026-05-04 23:05 41.17219 23.60382 36147 ft 431 kts 336°
2026-05-04 23:06 41.22626 23.56921 36134 ft 432 kts 336°
2026-05-04 23:06 41.28039 23.53446 36132 ft 432 kts 336°
2026-05-04 23:07 41.33454 23.49958 36132 ft 432 kts 336°
2026-05-04 23:07 41.38871 23.46469 36139 ft 433 kts 336°
2026-05-04 23:08 41.44289 23.42968 36130 ft 434 kts 335°
2026-05-04 23:08 41.49711 23.39428 36130 ft 433 kts 335°
2026-05-04 23:09 41.55114 23.35892 36148 ft 433 kts 335°
2026-05-04 23:09 41.60523 23.32357 36150 ft 432 kts 336°
2026-05-04 23:10 41.65925 23.28825 36145 ft 432 kts 335°
2026-05-04 23:10 41.71330 23.25281 36142 ft 432 kts 335°
2026-05-04 23:11 41.76730 23.21728 36142 ft 433 kts 335°
2026-05-04 23:11 41.82126 23.18167 36142 ft 432 kts 335°
2026-05-04 23:12 41.87528 23.14598 36131 ft 433 kts 336°
2026-05-04 23:12 41.92935 23.11022 36132 ft 433 kts 335°
2026-05-04 23:13 41.98341 23.07443 36145 ft 433 kts 335°
2026-05-04 23:13 42.03732 23.03866 36152 ft 431 kts 335°
2026-05-04 23:14 42.09109 23.00284 36151 ft 431 kts 336°
2026-05-04 23:14 42.14484 22.96691 36146 ft 431 kts 336°
2026-05-04 23:15 42.19826 22.93127 36146 ft 431 kts 336°
2026-05-04 23:15 42.25205 22.89535 36141 ft 431 kts 336°
2026-05-04 23:16 42.30579 22.85936 36137 ft 431 kts 336°
2026-05-04 23:16 42.35958 22.82323 36139 ft 432 kts 336°
2026-05-04 23:17 42.41347 22.78696 36140 ft 432 kts 336°
2026-05-04 23:17 42.46722 22.75070 36151 ft 431 kts 336°
2026-05-04 23:18 42.52078 22.71451 36163 ft 429 kts 336°
2026-05-04 23:18 42.57419 22.67837 36163 ft 428 kts 336°
2026-05-04 23:19 42.62750 22.64229 36161 ft 428 kts 336°
2026-05-04 23:19 42.68073 22.60620 36159 ft 428 kts 336°
2026-05-04 23:20 42.73391 22.57000 36157 ft 428 kts 336°
2026-05-04 23:20 42.78707 22.53364 36159 ft 428 kts 335°
2026-05-04 23:21 42.83992 22.49644 36149 ft 428 kts 330°
2026-05-04 23:21 42.88650 22.44551 36169 ft 430 kts 322°
2026-05-04 23:22 42.93154 22.39197 36177 ft 429 kts 322°
2026-05-04 23:22 42.97653 22.33861 36176 ft 429 kts 322°
2026-05-04 23:23 43.02128 22.28543 36143 ft 429 kts 322°
2026-05-04 23:23 43.06624 22.23178 36163 ft 428 kts 322°
2026-05-04 23:24 43.08500 22.20933 36167 ft 428 kts 322°
2026-05-04 23:24 43.11891 22.16865 36168 ft 427 kts 322°
2026-05-04 23:25 43.16358 22.11498 36167 ft 427 kts 322°
2026-05-04 23:25 43.20820 22.06132 36160 ft 427 kts 322°
2026-05-04 23:26 43.25282 22.00763 36147 ft 426 kts 322°
2026-05-04 23:26 43.29743 21.95390 36150 ft 426 kts 322°
2026-05-04 23:27 43.34198 21.90020 36151 ft 426 kts 322°
2026-05-04 23:27 43.38646 21.84625 36149 ft 426 kts 322°
2026-05-04 23:28 43.43082 21.79219 36150 ft 426 kts 322°
2026-05-04 23:28 43.47524 21.73812 36158 ft 426 kts 322°
2026-05-04 23:29 43.51968 21.68388 36157 ft 427 kts 322°
2026-05-04 23:29 43.56413 21.62958 36155 ft 427 kts 322°
2026-05-04 23:30 43.60863 21.57524 36149 ft 427 kts 322°
2026-05-04 23:30 43.65306 21.52084 36167 ft 427 kts 321°
2026-05-04 23:31 43.69743 21.46630 36172 ft 426 kts 321°
2026-05-04 23:31 43.74169 21.41176 36172 ft 426 kts 321°
2026-05-04 23:32 43.78590 21.35712 36148 ft 427 kts 321°
2026-05-04 23:32 43.83015 21.30236 36166 ft 426 kts 321°
2026-05-04 23:33 43.87432 21.24761 36168 ft 426 kts 321°
2026-05-04 23:33 43.91818 21.19316 35572 ft 428 kts 321°
2026-05-04 23:34 43.94050 21.16548 34783 ft 433 kts 321°
2026-05-04 23:34 43.96306 21.13745 33917 ft 434 kts 321°
2026-05-04 23:34 43.98533 21.10964 33001 ft 430 kts 321°
2026-05-04 23:34 44.00768 21.08170 32117 ft 435 kts 321°
2026-05-04 23:35 44.03034 21.05344 31232 ft 440 kts 321°
2026-05-04 23:35 44.05322 21.02488 30279 ft 446 kts 321°
2026-05-04 23:35 44.07647 20.99583 29308 ft 450 kts 321°
2026-05-04 23:35 44.09948 20.96699 28826 ft 442 kts 321°
2026-05-04 23:36 44.12221 20.93843 28170 ft 438 kts 321°
2026-05-04 23:36 44.14479 20.91025 27525 ft 434 kts 323°
2026-05-04 23:36 44.16910 20.88603 26877 ft 426 kts 333°
2026-05-04 23:36 44.19538 20.86781 26234 ft 419 kts 340°
2026-05-04 23:37 44.22222 20.85231 25621 ft 416 kts 340°
2026-05-04 23:37 44.24886 20.83686 25002 ft 413 kts 340°
2026-05-04 23:37 44.27532 20.82144 24389 ft 411 kts 340°
2026-05-04 23:37 44.30160 20.80605 23770 ft 408 kts 340°
2026-05-04 23:38 44.32770 20.79076 23111 ft 405 kts 340°
2026-05-04 23:38 44.35357 20.77563 22533 ft 400 kts 340°
2026-05-04 23:38 44.37909 20.76071 21970 ft 396 kts 340°
2026-05-04 23:38 44.40437 20.74594 21447 ft 391 kts 340°
2026-05-04 23:39 44.42936 20.73130 20909 ft 388 kts 340°
2026-05-04 23:39 44.45415 20.71673 20402 ft 385 kts 340°
2026-05-04 23:39 44.47873 20.70225 19896 ft 382 kts 340°
2026-05-04 23:39 44.50309 20.68785 19386 ft 379 kts 339°
2026-05-04 23:40 44.52620 20.66998 18887 ft 380 kts 328°
2026-05-04 23:40 44.54652 20.64613 18338 ft 383 kts 317°
2026-05-04 23:40 44.56325 20.61693 17762 ft 386 kts 306°
2026-05-04 23:40 44.57741 20.58510 17194 ft 384 kts 305°
2026-05-04 23:41 44.59152 20.55345 16627 ft 381 kts 305°
2026-05-04 23:41 44.60558 20.52205 16061 ft 379 kts 305°
2026-05-04 23:41 44.61959 20.49084 15483 ft 378 kts 305°
2026-05-04 23:41 44.63357 20.45966 14891 ft 377 kts 305°
2026-05-04 23:42 44.64747 20.42851 14317 ft 376 kts 305°
2026-05-04 23:42 44.66133 20.39738 13699 ft 375 kts 304°
2026-05-04 23:42 44.67511 20.36644 13094 ft 373 kts 304°
2026-05-04 23:42 44.68883 20.33561 12509 ft 371 kts 304°
2026-05-04 23:43 44.70249 20.30487 11926 ft 369 kts 304°
2026-05-04 23:43 44.71590 20.27466 11335 ft 357 kts 304°
2026-05-04 23:43 44.72874 20.24570 10827 ft 340 kts 304°
2026-05-04 23:43 44.74063 20.21880 10679 ft 317 kts 304°
2026-05-04 23:44 44.75195 20.19323 10396 ft 302 kts 305°
2026-05-04 23:44 44.76296 20.16840 10055 ft 297 kts 305°
2026-05-04 23:44 44.77383 20.14386 9875 ft 295 kts 304°
2026-05-04 23:44 44.78467 20.11934 9731 ft 295 kts 304°
2026-05-04 23:45 44.79195 20.10286 9635 ft 293 kts 304°
2026-05-04 23:45 44.80268 20.07851 9508 ft 293 kts 304°
2026-05-04 23:45 44.81342 20.05411 9248 ft 293 kts 304°
2026-05-04 23:45 44.82420 20.02972 8861 ft 294 kts 304°
2026-05-04 23:46 44.83503 20.00518 8463 ft 296 kts 304°
2026-05-04 23:46 44.84579 19.98072 8199 ft 292 kts 303°
2026-05-04 23:46 44.85654 19.95620 7875 ft 292 kts 302°
2026-05-04 23:46 44.86716 19.93196 7573 ft 290 kts 302°
2026-05-04 23:47 44.87777 19.90778 7269 ft 289 kts 302°
2026-05-04 23:47 44.88817 19.88409 6979 ft 287 kts 302°
2026-05-04 23:47 44.89861 19.86025 6775 ft 283 kts 301°
2026-05-04 23:47 44.90883 19.83688 6648 ft 276 kts 301°
2026-05-04 23:48 44.91927 19.81456 6522 ft 274 kts 311°
2026-05-04 23:48 44.93441 19.79791 6397 ft 278 kts 335°
2026-05-04 23:48 44.95307 19.79165 6267 ft 277 kts
2026-05-04 23:48 44.97174 19.79705 6046 ft 275 kts 26°
2026-05-04 23:49 44.98697 19.81277 5778 ft 272 kts 51°
2026-05-04 23:49 44.99609 19.83551 5623 ft 263 kts 75°
2026-05-04 23:49 44.99809 19.86038 5563 ft 249 kts 97°
2026-05-04 23:49 44.99360 19.88326 5504 ft 237 kts 117°
2026-05-04 23:50 44.98666 19.90381 5452 ft 227 kts 117°
2026-05-04 23:50 44.98005 19.92355 5401 ft 217 kts 117°
2026-05-04 23:50 44.97366 19.94268 5359 ft 213 kts 117°
2026-05-04 23:50 44.96752 19.96112 5309 ft 202 kts 117°
2026-05-04 23:51 44.96197 19.97890 5272 ft 192 kts 116°
2026-05-04 23:51 44.95619 19.99524 5077 ft 183 kts 121°
2026-05-04 23:51 44.94990 20.01052 4868 ft 178 kts 124°
2026-05-04 23:51 44.94355 20.02527 4633 ft 175 kts 124°
2026-05-04 23:52 44.93724 20.03971 4404 ft 171 kts 123°
2026-05-04 23:52 44.93101 20.05393 4182 ft 170 kts 123°
2026-05-04 23:52 44.92481 20.06806 3953 ft 168 kts 124°
2026-05-04 23:52 44.91867 20.08203 3736 ft 167 kts 123°
2026-05-04 23:53 44.91269 20.09565 3535 ft 157 kts 124°
2026-05-04 23:53 44.90716 20.10823 3320 ft 146 kts 123°
2026-05-04 23:53 44.90203 20.11989 3147 ft 139 kts 123°
2026-05-04 23:53 44.89702 20.13125 2956 ft 135 kts 124°
2026-05-04 23:54 44.89205 20.14253 2779 ft 136 kts 123°
2026-05-04 23:54 44.88712 20.15372 2600 ft 134 kts 124°
2026-05-04 23:54 44.88222 20.16484 2429 ft 133 kts 124°
2026-05-04 23:54 44.87733 20.17593 2212 ft 132 kts 123°
2026-05-04 23:55 44.87249 20.18691 2050 ft 132 kts 124°
2026-05-04 23:55 44.86759 20.19799 1857 ft 134 kts 124°
2026-05-04 23:55 44.85767 20.22048 1497 ft 135 kts 124°
2026-05-04 23:56 44.85269 20.23174 1320 ft 136 kts 123°
2026-05-04 23:56 44.84770 20.24303 1144 ft 135 kts 123°
2026-05-04 23:56 44.84272 20.25431 961 ft 136 kts 123°
2026-05-04 23:56 44.83769 20.26567 784 ft 137 kts 122°
2026-05-04 23:57 44.83267 20.27702 601 ft 137 kts 122°
2026-05-04 23:57 44.82762 20.28843 414 ft 137 kts 122°
2026-05-04 23:57 44.82261 20.29974 308 ft 130 kts 122°
2026-05-04 23:57 44.81897 20.30813 307 ft 61 kts 122°
2026-05-04 23:58 44.81749 20.31084 306 ft 24 kts 118°
2026-05-04 23:58 44.81651 20.31276 305 ft 24 kts 143°
2026-05-04 23:58 44.81583 20.31284 307 ft 1 kts 270°
2026-05-04 23:58 44.81592 20.31238 305 ft 9 kts 284°
2026-05-04 23:59 44.81615 20.31114 307 ft 17 kts 284°
2026-05-04 23:59 44.81646 20.30945 305 ft 19 kts 286°
2026-05-04 23:59 44.81712 20.30777 307 ft 21 kts 301°
2026-05-04 23:59 44.81759 20.30665 307 ft 6 kts 301°
2026-05-05 00:00 44.81760 20.30664 308 ft 0 kts 301°
2026-05-05 00:00 44.81761 20.30663 308 ft 1 kts 301°
2026-05-05 00:00 44.81800 20.30569 307 ft 15 kts 301°
2026-05-05 00:00 44.81872 20.30402 307 ft 25 kts 301°
2026-05-05 00:01 44.81982 20.30150 307 ft 35 kts 301°
2026-05-05 00:01 44.82121 20.29833 308 ft 33 kts 301°
2026-05-05 00:01 44.82162 20.29628 308 ft 17 kts 230°
2026-05-05 00:01 44.82083 20.29494 307 ft 17 kts 238°
2026-05-05 00:02 44.82112 20.29415 307 ft 8 kts 308°
2026-05-05 00:02 44.82122 20.29330 307 ft 10 kts 277°
2026-05-05 00:02 44.82108 20.29239 309 ft 9 kts 226°
2026-05-05 00:02 44.82101 20.29233 307 ft 2 kts 212°
2026-05-05 00:03 44.82088 20.29222 307 ft 0 kts 212°